Regional Weather Roundup
Issued by NWS

Home | Current Version | Previous Version | Text Only | Print | Product List | Glossary Off
Versions: 1 2 3 4 5 6 7 8 9 10 11 12 13 14 15 16 17 18 19 20 21 22 23 24 25 26 27 28 29 30 31 32 33 34 35 36 37 38 39 40 41 42 43 44 45 46 47 48 49 50

000
ASUS43 KDTX 040310
RWRMI
MICHIGAN HOURLY REGIONAL WEATHER ROUNDUP
NATIONAL WEATHER SERVICE DETROIT/PONTIAC MI
1000 PM EST TUE MAR 03 2015

NOTE: "FAIR" INDICATES FEW OR NO CLOUDS BELOW 12,000 FEET WITH NO
SIGNIFICANT WEATHER AND/OR OBSTRUCTION TO VISIBILITY.

MIZ047>049-052>055-059>063-066>070-074>076-081>083-040400-
SOUTHEAST LOWER MICHIGAN

CITY           SKY/WX    TMP DP  RH WIND       PRES   REMARKS
ADRIAN         CLOUDY    35  28  75 NW13      29.75R
ALMA           CLOUDY    30  25  81 W14G21    29.71R
ANN ARBOR      CLOUDY    35  29  78 W15       29.71R
BAD AXE        CLOUDY    31  28  91 W16G24    29.63R
DETROIT CITY   CLOUDY    37  28  70 W13G21    29.70R
DETROIT        CLOUDY    36  29  75 W13G24    29.72R
FLINT          CLOUDY    34  27  75 W20       29.69R
GROSSE ILE     CLOUDY    36  30  80 W10G16    29.70R
HILLSDALE      CLOUDY    34  30  85 W18G25    29.73R
HOWELL         CLOUDY    32  28  84 W18       29.70R

CITY           SKY/WX    TMP DP  RH WIND       PRES   REMARKS
JACKSON        CLOUDY    33  28  81 W13G23    29.72R
LAMBERTVILLE   CLOUDY    36  32  87 W10G18    29.75R
LANSING        CLOUDY    32  25  75 W18G28    29.73R
LAPEER         NOT AVBL
MASON          CLOUDY    32  27  80 W15G21    29.71R
MONROE         CLOUDY    36  30  80 W14G21    29.72R
MT. CLEMENS    CLOUDY    35  29  76 W13       29.67R
PONTIAC        CLOUDY    32  27  81 W22G31    29.67R
PORT HOPE        N/A     31  26  82 W9G20     29.60R
PORT HURON     CLOUDY    34  30  86 W7        29.68R
TRI CITIES     CLOUDY    32  24  72 W18G30    29.68R
YPSILANTI      CLOUDY    38  29  70 W16       29.71R
$$
MIZ043>046-050>051-056>058-064>065-071>073-077>080-040400-
SOUTHWEST LOWER MICHIGAN

CITY           SKY/WX    TMP DP  RH WIND       PRES   REMARKS
BATTLE CREEK   CLOUDY    34  28  79 W12       29.74R
BENTON HARBOR  CLOUDY    32  30  92 W13       29.80R
BIG RAPIDS     CLOUDY    28  26  91 W10       29.70R
COLDWATER      CLOUDY    33  29  83 W13G22    29.75R
HOLLAND        CLOUDY    32  24  72 W12       29.78R
GRAND RAPIDS   CLOUDY    30  24  78 W13G25    29.74R
KALAMAZOO      CLOUDY    34  28  79 W13       29.76R
MARSHALL       CLOUDY    32  28  85 W13G18    29.73R
MUSKEGON       CLOUDY    31  22  69 NW10G22   29.76R
$$
MIZ016>042-040400-
NORTHERN LOWER MICHIGAN

CITY           SKY/WX    TMP DP  RH WIND       PRES   REMARKS
ALPENA         CLOUDY    28  22  78 W15G26    29.59R
BEAVER ISLAND  CLOUDY    24  20  85 SW12      29.59R
BELLAIRE       CLOUDY    25  21  84 SW3       29.65R
CADILLAC       MOCLDY    25  21  86 W8        29.65R
CHARLEVOIX     MOCLDY    25  20  83 W10G16    29.65R
FRANKFORT      CLOUDY    29  24  79 W12G22    29.69R
GAYLORD        CLEAR     22  19  89 W13       29.58R
GRAYLING       CLOUDY    26  23  89 W12       29.62R
HARBOR SPRINGS PTCLDY    22  18  85 W7        29.60R
HOUGHTON LAKE  MOCLDY    25  19  78 W14       29.64R
MANISTEE       PTCLDY    28  19  69 W15       29.71R
OSCODA         CLOUDY    27  26  94 SW9       29.60R
PELLSTON       PTCLDY    25  17  72 W10       29.59R
TRAVERSE CITY  MOCLDY    26  21  81 SW8       29.66R
$$
MIZ007>008-015-040400-
EASTERN UPPER MICHIGAN

CITY           SKY/WX    TMP DP  RH WIND       PRES   REMARKS
KINROSS        MOCLDY    19  19 100 W9        29.53R
MACKINAC ISLAN PTCLDY    22  21  98 W16       29.55R
NEWBERRY       FLURRIES  22  20  95 SW10      29.55R
S. S. MARIE    FLURRIES  21  17  84 W7        29.51F
$$
MIZ004>006-011>014-085-040400-
CENTRAL UPPER MICHIGAN

CITY           SKY/WX    TMP DP  RH WIND       PRES   REMARKS
MANISTIQUE     MOCLDY    24  20  86 W9        29.58R
ESCANABA       CLOUDY    23  19  86 SW6       29.64R
MENOMINEE      PTCLDY    28  18  64 W5        29.68R
SAWYER-GWINN   LGT SNOW  23  16  74 NW23      29.58R
$$
MIZ001>003-009>011-084-040400-
WESTERN UPPER MICHIGAN

CITY           SKY/WX    TMP DP  RH WIND       PRES   REMARKS
IRON MOUNTAIN  FLURRIES  23  15  71 NW18      29.61R
HOUGHTON       MIX PCPN  14   6  70 NW26G39   29.61R WCI  -6
COPPER HARBOR    N/A     19  10  68 N20G32    29.60R
IRONWOOD       CLOUDY    18   7  62 W21G26    29.69R
$$

ABBREVIATIONS USED IN REMARKS
   TC - TEMPERATURE IN CELSIUS
  WCI - WIND CHILL INDEX
   HX - HEAT INDEX
  VSB - VISIBILITY




USA.gov is the U.S. government's official web portal to all federal, state and local government web resources and services.